| time (UTC) | temp C | wind direction | speed KPH | gust KPH | rain 1hr cm | rain 24hr cm | rain mn cm | humidity % | barometer mb |
| 20260506081532 | -2 | 336 | 1.6 | 4.8 | 0.00 | 0.00 | 0.00 | 55 | 1018.5 |
| 20260506073030 | -1 | 0 | 0.0 | 4.8 | 0.00 | 0.00 | 0.00 | 55 | 1018.8 |
| 20260506071534 | -2 | 0 | 0.0 | 6.4 | 0.00 | 0.00 | 0.00 | 54 | 1018.8 |
| 20260506061540 | -1 | 326 | 3.2 | 11.3 | 0.00 | 0.00 | 0.00 | 54 | 1019.2 |
| 20260506044529 | 1 | 336 | 3.2 | 6.4 | 0.00 | 0.00 | 0.00 | 47 | 1019.3 |
| 20260506043033 | 1 | 351 | 3.2 | 6.4 | 0.00 | 0.00 | 0.00 | 45 | 1019.4 |
| 20260506041530 | 2 | 355 | 4.8 | 6.4 | 0.00 | 0.00 | 0.00 | 45 | 1019.5 |
| 20260506040028 | 1 | 344 | 3.2 | 8.0 | 0.00 | 0.00 | 0.00 | 44 | 1019.6 |
| 20260506034528 | 3 | 34 | 8.0 | 9.7 | 0.00 | 0.00 | 0.00 | 42 | 1019.4 |
| 20260506033034 | 3 | 35 | 8.0 | 9.7 | 0.00 | 0.00 | 0.00 | 42 | 1019.3 |
| 20260506031533 | 3 | 36 | 9.7 | 14.5 | 0.00 | 0.00 | 0.00 | 41 | 1019.3 |
| 20260506030033 | 3 | 32 | 11.3 | 14.5 | 0.00 | 0.00 | 0.00 | 41 | 1019.2 |
| 20260506024528 | 3 | 26 | 9.7 | 17.7 | 0.00 | 0.00 | 0.00 | 40 | 1019.2 |
| 20260506023028 | 5 | 19 | 14.5 | 19.3 | 0.00 | 0.00 | 0.00 | 38 | 1019.1 |
| 20260506021532 | 6 | 22 | 19.3 | 25.7 | 0.00 | 0.00 | 0.00 | 36 | 1019.0 |
| 20260506020105 | 6 | 5 | 19.3 | 33.8 | 0.00 | 0.00 | 0.00 | 36 | 1019.0 |
| 20260506014531 | 6 | 13 | 20.9 | 35.4 | 0.00 | 0.00 | 0.00 | 36 | 1019.0 |
| 20260506013031 | 6 | 346 | 17.7 | 38.6 | 0.00 | 0.00 | 0.00 | 34 | 1018.8 |
| 20260506011530 | 7 | 9 | 22.5 | 35.4 | 0.00 | 0.00 | 0.00 | 34 | 1018.7 |
| 20260506010031 | 7 | 15 | 20.9 | 38.6 | 0.00 | 0.00 | 0.00 | 35 | 1018.7 |
| 20260506004526 | 7 | 19 | 27.4 | 41.8 | 0.00 | 0.00 | 0.00 | 35 | 1018.7 |
| 20260506003030 | 7 | 344 | 22.5 | 33.8 | 0.00 | 0.00 | 0.00 | 34 | 1018.7 |
| 20260506001533 | 7 | 33 | 25.7 | 41.8 | 0.00 | 0.00 | 0.00 | 34 | 1018.7 |
| 20260506000050 | 7 | 346 | 20.9 | 40.2 | 0.00 | 0.00 | 0.00 | 35 | 1018.6 |
| 20260505234534 | 8 | 18 | 24.1 | 43.5 | 0.00 | 0.00 | 0.00 | 35 | 1018.7 |
| 20260505233030 | 8 | 5 | 27.4 | 45.1 | 0.00 | 0.00 | 0.00 | 34 | 1018.7 |
| 20260505231530 | 7 | 334 | 30.6 | 40.2 | 0.00 | 0.00 | 0.00 | 34 | 1018.6 |
| 20260505230041 | 7 | 335 | 29.0 | 43.5 | 0.00 | 0.00 | 0.00 | 33 | 1018.6 |
| 20260505224528 | 8 | 15 | 37.0 | 48.3 | 0.00 | 0.00 | 0.00 | 34 | 1018.7 |
| 20260505223037 | 8 | 355 | 29.0 | 45.1 | 0.00 | 0.00 | 0.00 | 33 | 1018.6 |
| 20260505221530 | 8 | 13 | 32.2 | 48.3 | 0.00 | 0.00 | 0.00 | 35 | 1018.5 |
| 20260505220028 | 7 | 352 | 35.4 | 48.3 | 0.00 | 0.00 | 0.00 | 36 | 1018.7 |
| 20260505214532 | 7 | 5 | 30.6 | 54.7 | 0.00 | 0.00 | 0.00 | 34 | 1018.7 |
| 20260505213030 | 7 | 5 | 30.6 | 43.5 | 0.00 | 0.00 | 0.00 | 36 | 1018.8 |
| 20260505211541 | 7 | 322 | 32.2 | 43.5 | 0.00 | 0.00 | 0.00 | 37 | 1019.0 |
| 20260505210033 | 7 | 5 | 22.5 | 51.5 | 0.00 | 0.00 | 0.00 | 38 | 1019.0 |
| 20260505204534 | 7 | 344 | 33.8 | 49.9 | 0.00 | 0.00 | 0.00 | 37 | 1019.0 |
| 20260505203032 | 7 | 355 | 29.0 | 53.1 | 0.00 | 0.00 | 0.00 | 38 | 1019.0 |
| 20260505201533 | 7 | 349 | 30.6 | 45.1 | 0.00 | 0.00 | 0.00 | 38 | 1019.1 |
| 20260505200030 | 7 | 340 | 32.2 | 51.5 | 0.00 | 0.00 | 0.00 | 40 | 1019.0 |
| 20260505194532 | 6 | 335 | 29.0 | 48.3 | 0.00 | 0.00 | 0.00 | 40 | 1019.1 |
| 20260505193032 | 7 | 344 | 32.2 | 45.1 | 0.00 | 0.00 | 0.00 | 38 | 1019.1 |
| 20260505191535 | 7 | 5 | 32.2 | 49.9 | 0.00 | 0.00 | 0.00 | 39 | 1019.2 |
| 20260505190029 | 6 | 350 | 37.0 | 54.7 | 0.00 | 0.00 | 0.00 | 40 | 1019.1 |
| 20260505184539 | 6 | 14 | 29.0 | 51.5 | 0.00 | 0.00 | 0.00 | 42 | 1019.0 |
| 20260505183031 | 6 | 317 | 32.2 | 46.7 | 0.00 | 0.00 | 0.00 | 44 | 1019.3 |
| 20260505181537 | 6 | 309 | 25.7 | 45.1 | 0.00 | 0.00 | 0.00 | 44 | 1019.1 |
| 20260505180033 | 6 | 341 | 32.2 | 46.7 | 0.00 | 0.00 | 0.00 | 44 | 1019.1 |
| 20260505174537 | 6 | 344 | 29.0 | 43.5 | 0.00 | 0.00 | 0.00 | 43 | 1019.1 |
| 20260505173031 | 5 | 326 | 24.1 | 38.6 | 0.00 | 0.00 | 0.00 | 47 | 1019.2 |
| 20260505171538 | 5 | 348 | 24.1 | 40.2 | 0.00 | 0.00 | 0.00 | 46 | 1019.4 |
| 20260505170032 | 5 | 319 | 25.7 | 35.4 | 0.00 | 0.00 | 0.00 | 50 | 1019.5 |
| 20260505164533 | 4 | 31 | 29.0 | 40.2 | 0.00 | 0.00 | 0.00 | 51 | 1019.6 |
| 20260505163032 | 4 | 26 | 22.5 | 33.8 | 0.00 | 0.00 | 0.00 | 52 | 1019.6 |
| 20260505161532 | 3 | 332 | 16.1 | 25.7 | 0.00 | 0.00 | 0.00 | 55 | 1019.7 |
| 20260505153039 | 3 | 338 | 19.3 | 29.0 | 0.00 | 0.00 | 0.00 | 58 | 1019.7 |
| 20260505151532 | 3 | 23 | 20.9 | 32.2 | 0.00 | 0.00 | 0.00 | 58 | 1019.9 |
| 20260505124530 | 0 | 346 | 16.1 | 19.3 | 0.00 | 0.00 | 0.00 | 69 | 1019.0 |
| 20260505123045 | 0 | 351 | 16.1 | 22.5 | 0.00 | 0.00 | 0.00 | 69 | 1018.7 |
| 20260505121532 | 0 | 336 | 12.9 | 20.9 | 0.00 | 0.00 | 0.00 | 69 | 1018.8 |
| 20260505120039 | 0 | 347 | 17.7 | 24.1 | 0.00 | 0.00 | 0.00 | 68 | 1018.7 |
| 20260505114532 | 0 | 344 | 17.7 | 22.5 | 0.00 | 0.00 | 0.00 | 67 | 1018.5 |
| 20260505113032 | 0 | 5 | 16.1 | 22.5 | 0.00 | 0.00 | 0.00 | 64 | 1018.5 |
| 20260505111535 | 0 | 5 | 16.1 | 20.9 | 0.00 | 0.00 | 0.00 | 64 | 1018.3 |
| 20260505101532 | 1 | 5 | 14.5 | 19.3 | 0.00 | 0.00 | 0.00 | 62 | 1018.4 |
| 20260505100034 | 1 | 5 | 16.1 | 22.5 | 0.00 | 0.00 | 0.00 | 60 | 1018.3 |
| 20260505094532 | 1 | 5 | 16.1 | 20.9 | 0.00 | 0.00 | 0.00 | 61 | 1018.2 |
| 20260505093031 | 1 | 360 | 14.5 | 17.7 | 0.00 | 0.00 | 0.00 | 60 | 1018.1 |
| 20260505091530 | 1 | 5 | 11.3 | 14.5 | 0.00 | 0.00 | 0.00 | 59 | 1018.1 |
| 20260505090030 | 1 | 13 | 9.7 | 14.5 | 0.00 | 0.00 | 0.00 | 60 | 1018.2 |
| 20260505084536 | 1 | 5 | 11.3 | 14.5 | 0.00 | 0.00 | 0.00 | 59 | 1018.0 |
| 20260505083031 | 2 | 355 | 11.3 | 14.5 | 0.00 | 0.00 | 0.00 | 58 | 1018.1 |